Flag for Germany Weather past 2 weeks in Tübingen, Baden-Württemberg, Germany

Now
39 °F

Rain showers. Scattered clouds.


Feels Like: 27 °F
Forecast: 34 / 45 °F
Wind: 30 mph from West

Location: Stuttgart-Echterdingen

Current Time: Apr 1, 2015 at 8:08:02 PM

Latest Report: Apr 1, 2015 at 7:20 PM


Visibility: N/A

Pressure: 30.15 "Hg

Humidity: 75%

Dew point: 32 °F

Location of TübingenLocation

Historic Weather in Tübingen — Graph

°F

Tübingen temperature yesterday

Maximum temperature yesterday: 55 °F (at 7:20 AM)
Minimum temperature yesterday: 39 °F (at 11:20 PM)
Average temperature yesterday: 48 °F

Past Weeks' High & Low Weather Summary

 TemperatureHumidityPressure
High64 °F (Mar 17, 5:20 PM)100% (Mar 19, 6:20 AM)30.36 "Hg (Mar 19, 6:20 AM)
Low30 °F (Mar 24, 4:50 AM)29% (Mar 20, 4:20 PM)29.56 "Hg (Mar 25, 1:50 PM)
Average46 °F71%29.96 "Hg
* Reported Mar 17 5:20 PM — Apr 1 6:50 PM, Tübingen, Weather by CustomWeather, © 2015

Note: Actual official high and low records may vary slightly from our data, if they occured in-between our weather recording intervals... More about our weather records

Advertising

Tübingen weather history for previous 24 hours

 ConditionsComfort  
Time TempWeatherWind HumidityBarometerVisibility
6:50 PM
Wed, Apr 1
41 °FScattered clouds.20 mph61%30.12 "HgN/A
6:20 PM41 °FPassing clouds.25 mph66%30.12 "HgN/A
5:50 PM45 °FPassing clouds.22 mph53%30.12 "HgN/A
5:20 PM43 °FSprinkles. Scattered clouds.26 mph61%30.12 "HgN/A
4:50 PM43 °FScattered showers. Scattered clouds.24 mph66%30.12 "HgN/A
4:20 PM43 °FScattered clouds.25 mph66%30.12 "HgN/A
3:50 PM41 °FScattered clouds.18 mph81%30.12 "HgN/A
3:20 PM41 °FSprinkles. Partly sunny.28 mph76%30.12 "HgN/A
2:50 PM43 °FScattered showers. Scattered clouds.32 mph61%30.12 "HgN/A
2:20 PM45 °FScattered showers. Scattered clouds.28 mph57%30.12 "HgN/A
1:50 PM43 °FPassing clouds.26 mph71%30.12 "HgN/A
1:20 PM39 °FSprinkles. Scattered clouds.24 mph81%30.12 "HgN/A
12:50 PM43 °FSprinkles. Scattered clouds.25 mph57%30.12 "HgN/A
12:20 PM41 °FScattered clouds.28 mph57%30.12 "HgN/A
11:50 AM43 °FScattered clouds.24 mph53%30.12 "HgN/A
11:20 AM41 °FPassing clouds.25 mph61%30.12 "HgN/A
10:50 AM43 °FScattered clouds.28 mph57%30.09 "HgN/A
10:20 AM41 °FScattered clouds.26 mph57%30.09 "HgN/A
9:50 AM39 °FScattered clouds.25 mph65%30.09 "HgN/A
9:20 AM39 °FScattered clouds.26 mph65%30.07 "HgN/A
8:50 AM37 °FScattered clouds.26 mph70%30.07 "HgN/A
8:20 AM36 °FPassing clouds.24 mph81%30.04 "HgN/A
7:50 AM36 °FSnow. Passing clouds.29 mph81%30.01 "HgN/A
7:20 AM37 °FPassing clouds.25 mph81%30.01 "HgN/A
6:50 AM37 °FPassing clouds.24 mph81%30.01 "HgN/A
6:20 AM37 °FSprinkles. Partly cloudy.22 mph81%29.98 "HgN/A
5:50 AM37 °FSprinkles. Partly cloudy.15 mph81%29.98 "HgN/A
5:20 AM37 °FSprinkles. Partly cloudy.17 mph87%29.98 "HgN/A
4:50 AM37 °FSnow flurries. Partly cloudy.15 mph87%29.98 "HgN/A
4:20 AM36 °FSnow flurries. Partly cloudy.13 mph87%29.98 "HgN/A
3:50 AM36 °FSnow flurries. Partly cloudy.17 mph87%29.98 "HgN/A
3:20 AM36 °FSnow flurries. Partly cloudy.18 mph87%29.98 "HgN/A
2:50 AM41 °FPassing clouds.15 mph81%29.95 "HgN/A
2:20 AM43 °FPassing clouds.21 mph71%29.92 "HgN/A
1:50 AM43 °FPassing clouds.18 mph71%29.92 "HgN/A
1:20 AM43 °FPassing clouds.25 mph71%29.92 "HgN/A
12:50 AM43 °FPassing clouds.18 mph71%29.92 "HgN/A
12:20 AM43 °FPassing clouds.14 mph76%29.92 "HgN/A
11:50 PM
Tue, Mar 31
41 °FPassing clouds.15 mph81%29.89 "HgN/A
11:20 PM39 °FPassing clouds.10 mph87%29.89 "HgN/A
10:50 PM41 °FQuite cool.13 mph87%29.89 "HgN/A
10:20 PM41 °FPassing clouds.13 mph81%29.89 "HgN/A
9:50 PM41 °FSprinkles. Passing clouds.15 mph81%29.89 "HgN/A
9:20 PM41 °FSprinkles. Passing clouds.21 mph87%29.89 "HgN/A
8:50 PM41 °FSprinkles. Broken clouds.28 mph87%29.92 "HgN/A
8:20 PM43 °FPartly sunny.23 mph76%29.89 "HgN/A
Weather by CustomWeather, © 2015

See weather overviewHow to use our weather pages